Regional Weather Roundup
Issued by NWS Sioux Falls, SD

Home | Current Version | Previous Version | Text Only | Print | Product List | Glossary On
Versions: 1 2 3 4 5 6 7 8 9 10 11 12 13 14 15 16 17 18 19 20 21 22 23 24 25 26 27 28 29 30 31 32 33 34 35 36 37 38 39 40 41 42 43 44 45 46 47 48 49 50
983
ASUS43 KFSD 252302
RWRFSD

WEATHER ROUNDUP FOR SE SOUTH DAKOTA/SW MINNESOTA/NW IOWA
NATIONAL WEATHER SERVICE SIOUX FALLS SD
600 PM CDT WED MAY 25 2016

NOTE: "FAIR" INDICATES FEW OR NO CLOUDS BELOW 12,000 FEET WITH NO
SIGNIFICANT WEATHER AND OR OBSTRUCTIONS TO VISIBILITY.


SDZ038>040-050-052>070-260000-
SOUTHEAST SOUTH DAKOTA

CITY           SKY/WX    TMP DP  RH WIND       PRES   REMARKS
BROOKINGS      MOSUNNY   76  60  57 SW12      29.78F
CHAMBERLAIN    NOT AVBL
HURON          MOSUNNY   77  58  51 NW3       29.76S
MADISON        FAIR      73  63  68 SW10      29.80F
MITCHELL       MOSUNNY   75  60  59 W3        29.78S
SIOUX FALLS    MOSUNNY   79  62  56 W6        29.79S
WINNER         LGT RAIN  74  50  42 NW15G22   29.79R
YANKTON        MOSUNNY   81  59  47 SW6       29.76S
$$

MNZ071-072-080-081-089-090-097-098-260000-
SOUTHWEST MINNESOTA

CITY           SKY/WX    TMP DP  RH WIND       PRES   REMARKS
FAIRMONT       MOSUNNY   81  48  32 W16       29.80S
JACKSON        SUNNY     81  54  39 W8        29.82F
LUVERNE        MOSUNNY   79  57  47 SW12      29.80S
MARSHALL       PTSUNNY   79  60  52 SW15      29.78S
MONTEVIDEO     SUNNY     82  55  39 W10G17    29.77F
PIPESTONE      MOSUNNY   77  61  57 W10       29.81S
REDWOOD FALLS  SUNNY     79  58  48 SW14G22   29.77S
TRACY          MOSUNNY   79  61  53 SW13      29.80S
WINDOM         MOSUNNY   79  61  53 CALM      29.80F
WORTHINGTON    SUNNY     78  61  55 W12       29.81F
$$

IAZ001>003-012>014-020>022-031-032-NEZ013-014-SDZ071-260000-
NORTHWEST IOWA

CITY           SKY/WX    TMP DP  RH WIND       PRES   REMARKS
DENISON        PTSUNNY   79  63  57 SW9       29.81F
ESTHERVILLE    SUNNY     80  58  46 SW12G22   29.81S
SIOUX CITY     CLOUDY    80  63  55 SW9       29.78F
SPENCER        MOSUNNY   80  58  46 SW9       29.81S
STORM LAKE     MOSUNNY   81  59  47 SW12G18   29.82F
$$

ABBREVIATIONS USED IN REMARKS
   TC - TEMPERATURE IN CELSIUS
  WCI - WIND CHILL INDEX
   HX - HEAT INDEX
  VSB - VISIBILITY





USA.gov is the U.S. government's official web portal to all federal, state and local government web resources and services.